| time (UTC) | temp F | wind direction | speed MPH | gust MPH | rain 1hr in | rain 24hr in | rain mn in | humidity % | barometer mb |
| 20260509135519 | 74 | 60 | 3.0 | 12.0 | 0.00 | 0.00 | 0.00 | 50 | 994.2 |
| 20260509134515 | 74 | 199 | 2.0 | 5.0 | 0.00 | 0.00 | 0.00 | 51 | 994.2 |
| 20260509133517 | 74 | 161 | 4.0 | 10.0 | 0.00 | 0.00 | 0.00 | 51 | 994.3 |
| 20260509132538 | 74 | 114 | 4.0 | 9.0 | 0.00 | 0.00 | 0.00 | 53 | 994.5 |
| 20260509131519 | 73 | 33 | 4.0 | 10.0 | 0.00 | 0.00 | 0.00 | 54 | 994.5 |
| 20260509130520 | 73 | 35 | 5.0 | 10.0 | 0.00 | 0.00 | 0.00 | 55 | 994.5 |
| 20260509125516 | 73 | 37 | 3.0 | 10.0 | 0.00 | 0.00 | 0.00 | 54 | 994.5 |
| 20260509124518 | 73 | 88 | 3.0 | 8.0 | 0.00 | 0.00 | 0.00 | 54 | 994.6 |
| 20260509123519 | 74 | 153 | 3.0 | 9.0 | 0.00 | 0.00 | 0.00 | 54 | 994.7 |
| 20260509122540 | 73 | 119 | 2.0 | 5.0 | 0.00 | 0.00 | 0.00 | 56 | 994.8 |
| 20260509121516 | 72 | 37 | 5.0 | 13.0 | 0.00 | 0.00 | 0.00 | 57 | 994.9 |
| 20260509120517 | 72 | 62 | 2.0 | 7.0 | 0.00 | 0.00 | 0.00 | 57 | 995.1 |
| 20260509115518 | 71 | 29 | 5.0 | 9.0 | 0.00 | 0.00 | 0.00 | 59 | 995.1 |
| 20260509114539 | 71 | 92 | 2.0 | 5.0 | 0.00 | 0.00 | 0.00 | 60 | 995.2 |
| 20260509113515 | 71 | 92 | 3.0 | 8.0 | 0.00 | 0.00 | 0.00 | 61 | 995.4 |
| 20260509112517 | 70 | 106 | 3.0 | 8.0 | 0.00 | 0.00 | 0.00 | 60 | 995.5 |
| 20260509111518 | 70 | 180 | 3.0 | 8.0 | 0.00 | 0.00 | 0.00 | 61 | 995.6 |
| 20260509110519 | 70 | 144 | 2.0 | 6.0 | 0.00 | 0.00 | 0.00 | 62 | 995.7 |
| 20260509105515 | 70 | 180 | 3.0 | 10.0 | 0.00 | 0.00 | 0.00 | 61 | 995.7 |
| 20260509104516 | 70 | 108 | 3.0 | 7.0 | 0.00 | 0.00 | 0.00 | 63 | 995.8 |
| 20260509103537 | 69 | 114 | 1.0 | 5.0 | 0.00 | 0.00 | 0.00 | 66 | 996.0 |
| 20260509102519 | 68 | 80 | 3.0 | 7.0 | 0.00 | 0.00 | 0.00 | 66 | 996.0 |
| 20260509101540 | 68 | 58 | 2.0 | 5.0 | 0.00 | 0.00 | 0.00 | 67 | 996.0 |
| 20260509100521 | 66 | 26 | 4.0 | 10.0 | 0.00 | 0.00 | 0.00 | 67 | 996.1 |
| 20260509095517 | 66 | 37 | 5.0 | 9.0 | 0.00 | 0.00 | 0.00 | 69 | 996.0 |
| 20260509094518 | 65 | 42 | 3.0 | 10.0 | 0.00 | 0.00 | 0.00 | 69 | 996.1 |
| 20260509093539 | 65 | 35 | 4.0 | 8.0 | 0.00 | 0.00 | 0.00 | 69 | 996.1 |
| 20260509092520 | 65 | 56 | 4.0 | 9.0 | 0.00 | 0.00 | 0.00 | 70 | 996.2 |
| 20260509091516 | 64 | 43 | 2.0 | 6.0 | 0.00 | 0.00 | 0.00 | 71 | 996.2 |
| 20260509090517 | 63 | 40 | 4.0 | 8.0 | 0.00 | 0.00 | 0.00 | 71 | 996.2 |
| 20260509085518 | 63 | 56 | 3.0 | 8.0 | 0.00 | 0.00 | 0.00 | 73 | 996.1 |
| 20260509084519 | 62 | 41 | 4.0 | 6.0 | 0.00 | 0.00 | 0.00 | 74 | 996.1 |
| 20260509083520 | 62 | 41 | 3.0 | 8.0 | 0.00 | 0.00 | 0.00 | 75 | 996.3 |
| 20260509082516 | 61 | 23 | 3.0 | 6.0 | 0.00 | 0.00 | 0.00 | 76 | 996.4 |
| 20260509081517 | 60 | 28 | 4.0 | 7.0 | 0.00 | 0.00 | 0.00 | 76 | 996.4 |
| 20260509080518 | 60 | 37 | 4.0 | 6.0 | 0.00 | 0.00 | 0.00 | 77 | 996.4 |
| 20260509075520 | 59 | 31 | 3.0 | 6.0 | 0.00 | 0.00 | 0.00 | 79 | 996.4 |
| 20260509074520 | 59 | 34 | 5.0 | 9.0 | 0.00 | 0.00 | 0.00 | 78 | 996.4 |
| 20260509073557 | 59 | 30 | 4.0 | 9.0 | 0.00 | 0.00 | 0.00 | 79 | 996.5 |
| 20260509072518 | 58 | 32 | 3.0 | 7.0 | 0.00 | 0.00 | 0.00 | 81 | 996.5 |
| 20260509071539 | 57 | 47 | 3.0 | 7.0 | 0.00 | 0.00 | 0.00 | 83 | 996.5 |
| 20260509070520 | 56 | 33 | 5.0 | 8.0 | 0.00 | 0.00 | 0.00 | 84 | 996.5 |
| 20260509065515 | 56 | 45 | 3.0 | 7.0 | 0.00 | 0.00 | 0.00 | 86 | 996.5 |
| 20260509064537 | 55 | 50 | 2.0 | 5.0 | 0.00 | 0.00 | 0.00 | 88 | 996.5 |
| 20260509063518 | 54 | 43 | 1.0 | 3.0 | 0.00 | 0.00 | 0.00 | 93 | 996.5 |
| 20260509062519 | 53 | 0.0 | 0.0 | 0.00 | 0.00 | 0.00 | 97 | 996.5 | |
| 20260509061515 | 51 | 0.0 | 0.0 | 0.00 | 0.00 | 0.00 | 97 | 996.5 | |
| 20260509060516 | 51 | 4 | 0.0 | 1.0 | 0.00 | 0.00 | 0.00 | 97 | 996.6 |
| 20260509055538 | 49 | 0.0 | 0.0 | 0.00 | 0.00 | 0.00 | 98 | 996.5 | |
| 20260509054519 | 48 | 0.0 | 0.0 | 0.00 | 0.00 | 0.00 | 97 | 996.3 | |
| 20260509053515 | 48 | 0.0 | 0.0 | 0.00 | 0.00 | 0.00 | 98 | 996.3 | |
| 20260509052517 | 47 | 0.0 | 0.0 | 0.00 | 0.00 | 0.00 | 98 | 996.3 | |
| 20260509051518 | 45 | 0.0 | 0.0 | 0.00 | 0.00 | 0.00 | 98 | 996.2 | |
| 20260509050519 | 43 | 0.0 | 0.0 | 0.00 | 0.00 | 0.00 | 97 | 996.2 | |
| 20260509045515 | 43 | 4 | 0.0 | 1.0 | 0.00 | 0.00 | 0.00 | 97 | 996.2 |
| 20260509044536 | 43 | 0.0 | 0.0 | 0.00 | 0.00 | 0.00 | 97 | 996.2 | |
| 20260509043518 | 43 | 0.0 | 0.0 | 0.00 | 0.00 | 0.00 | 97 | 996.2 | |
| 20260509042519 | 43 | 0.0 | 0.0 | 0.00 | 0.00 | 0.00 | 97 | 996.3 | |
| 20260509041535 | 42 | 0.0 | 0.0 | 0.00 | 0.00 | 0.00 | 97 | 996.2 | |
| 20260509040517 | 42 | 0.0 | 0.0 | 0.00 | 0.00 | 0.00 | 97 | 996.1 | |
| 20260509035518 | 42 | 0.0 | 0.0 | 0.00 | 0.00 | 0.00 | 97 | 996.3 | |
| 20260509034539 | 42 | 0.0 | 0.0 | 0.00 | 0.00 | 0.00 | 97 | 996.3 | |
| 20260509033520 | 42 | 0.0 | 0.0 | 0.00 | 0.00 | 0.00 | 97 | 996.3 | |
| 20260509032516 | 42 | 0.0 | 0.0 | 0.00 | 0.00 | 0.00 | 97 | 996.3 | |
| 20260509031518 | 42 | 0.0 | 0.0 | 0.00 | 0.00 | 0.00 | 97 | 996.4 | |
| 20260509030519 | 42 | 0.0 | 0.0 | 0.00 | 0.00 | 0.00 | 96 | 996.5 | |
| 20260509025520 | 42 | 0.0 | 0.0 | 0.00 | 0.00 | 0.00 | 96 | 996.6 | |
| 20260509024516 | 43 | 0.0 | 0.0 | 0.00 | 0.00 | 0.00 | 96 | 996.7 | |
| 20260509023537 | 43 | 0.0 | 0.0 | 0.00 | 0.00 | 0.00 | 96 | 996.7 | |
| 20260509022518 | 43 | 0.0 | 0.0 | 0.00 | 0.00 | 0.00 | 96 | 996.7 | |
| 20260509021520 | 43 | 0.0 | 0.0 | 0.00 | 0.00 | 0.00 | 96 | 996.7 | |
| 20260509020516 | 43 | 0.0 | 0.0 | 0.00 | 0.00 | 0.00 | 96 | 996.7 | |
| 20260509015517 | 43 | 0.0 | 0.0 | 0.00 | 0.00 | 0.00 | 96 | 996.7 | |
| 20260509014518 | 43 | 0.0 | 0.0 | 0.00 | 0.00 | 0.00 | 96 | 996.7 | |
| 20260509013520 | 43 | 0.0 | 0.0 | 0.00 | 0.00 | 0.00 | 96 | 996.8 | |
| 20260509012516 | 44 | 0.0 | 0.0 | 0.00 | 0.00 | 0.00 | 96 | 996.9 | |
| 20260509011537 | 44 | 0.0 | 0.0 | 0.00 | 0.00 | 0.00 | 96 | 996.9 | |
| 20260509010538 | 44 | 0.0 | 0.0 | 0.00 | 0.00 | 0.00 | 95 | 997.0 | |
| 20260509005520 | 44 | 0.0 | 0.0 | 0.00 | 0.00 | 0.00 | 95 | 997.1 | |
| 20260509004521 | 44 | 0.0 | 0.0 | 0.00 | 0.00 | 0.00 | 95 | 997.2 | |
| 20260509003517 | 45 | 0.0 | 0.0 | 0.00 | 0.00 | 0.00 | 95 | 997.2 | |
| 20260509002518 | 45 | 0.0 | 0.0 | 0.00 | 0.00 | 0.00 | 95 | 997.2 | |
| 20260509001519 | 45 | 0.0 | 0.0 | 0.00 | 0.00 | 0.00 | 95 | 997.3 | |
| 20260509000521 | 45 | 0.0 | 0.0 | 0.00 | 0.00 | 0.00 | 95 | 997.5 | |
| 20260508235557 | 45 | 0.0 | 0.0 | 0.00 | 0.00 | 0.00 | 95 | 997.6 | |
| 20260508234538 | 46 | 0.0 | 0.0 | 0.00 | 0.00 | 0.00 | 95 | 997.6 | |
| 20260508233519 | 46 | 0.0 | 0.0 | 0.00 | 0.00 | 0.00 | 95 | 997.7 | |
| 20260508232521 | 46 | 0.0 | 0.0 | 0.00 | 0.00 | 0.00 | 94 | 997.7 | |
| 20260508231537 | 46 | 0.0 | 0.0 | 0.00 | 0.00 | 0.00 | 94 | 997.6 | |
| 20260508230518 | 46 | 0.0 | 0.0 | 0.00 | 0.00 | 0.00 | 94 | 997.7 | |
| 20260508225519 | 47 | 0.0 | 0.0 | 0.00 | 0.00 | 0.00 | 94 | 997.7 | |
| 20260508224520 | 47 | 0.0 | 0.0 | 0.00 | 0.00 | 0.00 | 93 | 997.7 | |
| 20260508223516 | 47 | 0.0 | 0.0 | 0.00 | 0.00 | 0.00 | 93 | 997.7 | |
| 20260508222518 | 47 | 0.0 | 0.0 | 0.00 | 0.00 | 0.00 | 93 | 997.8 | |
| 20260508221519 | 47 | 0.0 | 0.0 | 0.00 | 0.00 | 0.00 | 92 | 997.8 | |
| 20260508220520 | 48 | 0.0 | 0.0 | 0.00 | 0.00 | 0.00 | 92 | 997.7 | |
| 20260508215516 | 48 | 0.0 | 0.0 | 0.00 | 0.00 | 0.00 | 92 | 997.8 | |
| 20260508214538 | 48 | 0.0 | 0.0 | 0.00 | 0.00 | 0.00 | 91 | 997.8 | |
| 20260508213519 | 49 | 0.0 | 0.0 | 0.00 | 0.00 | 0.00 | 91 | 997.8 | |
| 20260508212540 | 49 | 0.0 | 0.0 | 0.00 | 0.00 | 0.00 | 90 | 997.8 | |
| 20260508211517 | 49 | 0.0 | 0.0 | 0.00 | 0.00 | 0.00 | 90 | 997.9 | |
| 20260508210517 | 50 | 0.0 | 0.0 | 0.00 | 0.00 | 0.00 | 89 | 997.9 | |
| 20260508205519 | 50 | 0.0 | 0.0 | 0.00 | 0.00 | 0.00 | 88 | 997.9 | |
| 20260508204520 | 50 | 0.0 | 0.0 | 0.00 | 0.00 | 0.00 | 87 | 997.8 | |
| 20260508203516 | 51 | 0.0 | 0.0 | 0.00 | 0.00 | 0.00 | 86 | 997.7 | |
| 20260508202517 | 52 | 0.0 | 0.0 | 0.00 | 0.00 | 0.00 | 85 | 997.7 | |
| 20260508201519 | 52 | 0.0 | 0.0 | 0.00 | 0.00 | 0.00 | 84 | 997.6 | |
| 20260508200520 | 53 | 0.0 | 0.0 | 0.00 | 0.00 | 0.00 | 83 | 997.5 | |
| 20260508195516 | 54 | 0.0 | 0.0 | 0.00 | 0.00 | 0.00 | 81 | 997.4 | |
| 20260508194518 | 55 | 0.0 | 0.0 | 0.00 | 0.00 | 0.00 | 80 | 997.2 | |
| 20260508193538 | 56 | 0.0 | 0.0 | 0.00 | 0.00 | 0.00 | 78 | 997.1 | |
| 20260508192520 | 57 | 0.0 | 0.0 | 0.00 | 0.00 | 0.00 | 77 | 997.1 | |
| 20260508191536 | 58 | 0.0 | 0.0 | 0.00 | 0.00 | 0.00 | 74 | 996.9 | |
| 20260508190517 | 59 | 0.0 | 0.0 | 0.00 | 0.00 | 0.00 | 72 | 996.9 | |
| 20260508185518 | 61 | 0.0 | 0.0 | 0.00 | 0.00 | 0.00 | 70 | 996.7 | |
| 20260508184519 | 62 | 0.0 | 2.0 | 0.00 | 0.00 | 0.00 | 63 | 996.6 | |
| 20260508183516 | 62 | 0.0 | 0.0 | 0.00 | 0.00 | 0.00 | 61 | 996.6 | |
| 20260508182517 | 63 | 351 | 0.0 | 2.0 | 0.00 | 0.00 | 0.00 | 57 | 996.6 |
| 20260508181518 | 64 | 347 | 1.0 | 2.0 | 0.00 | 0.00 | 0.00 | 54 | 996.5 |
| 20260508180519 | 65 | 24 | 2.0 | 4.0 | 0.00 | 0.00 | 0.00 | 53 | 996.5 |
| 20260508175516 | 65 | 45 | 3.0 | 7.0 | 0.00 | 0.00 | 0.00 | 51 | 996.4 |
| 20260508174516 | 66 | 13 | 2.0 | 6.0 | 0.00 | 0.00 | 0.00 | 49 | 996.4 |
| 20260508173538 | 66 | 19 | 0.0 | 2.0 | 0.00 | 0.00 | 0.00 | 49 | 996.4 |
| 20260508172538 | 66 | 30 | 2.0 | 6.0 | 0.00 | 0.00 | 0.00 | 46 | 996.3 |
| 20260508171534 | 67 | 40 | 2.0 | 4.0 | 0.00 | 0.00 | 0.00 | 46 | 996.3 |
| 20260508170515 | 67 | 18 | 2.0 | 7.0 | 0.00 | 0.00 | 0.00 | 45 | 996.3 |
| 20260508165517 | 68 | 356 | 3.0 | 7.0 | 0.00 | 0.00 | 0.00 | 43 | 996.3 |
| 20260508164518 | 68 | 11 | 1.0 | 4.0 | 0.00 | 0.00 | 0.00 | 42 | 996.2 |
| 20260508163519 | 68 | 43 | 3.0 | 6.0 | 0.00 | 0.00 | 0.00 | 43 | 996.2 |
| 20260508162535 | 69 | 358 | 2.0 | 5.0 | 0.00 | 0.00 | 0.00 | 43 | 996.2 |
| 20260508161516 | 68 | 39 | 3.0 | 7.0 | 0.00 | 0.00 | 0.00 | 44 | 996.2 |
| 20260508160517 | 68 | 32 | 4.0 | 9.0 | 0.00 | 0.00 | 0.00 | 43 | 996.2 |
| 20260508155518 | 68 | 44 | 3.0 | 6.0 | 0.00 | 0.00 | 0.00 | 45 | 996.2 |
| 20260508154519 | 68 | 39 | 3.0 | 10.0 | 0.00 | 0.00 | 0.00 | 44 | 996.2 |
| 20260508153516 | 69 | 336 | 2.0 | 5.0 | 0.00 | 0.00 | 0.00 | 45 | 996.2 |
| 20260508152517 | 68 | 313 | 1.0 | 3.0 | 0.00 | 0.00 | 0.00 | 45 | 996.1 |
| 20260508151538 | 67 | 315 | 1.0 | 4.0 | 0.00 | 0.00 | 0.00 | 45 | 996.2 |
| 20260508150519 | 67 | 35 | 4.0 | 8.0 | 0.00 | 0.00 | 0.00 | 44 | 996.2 |
| 20260508145520 | 67 | 9 | 3.0 | 7.0 | 0.00 | 0.00 | 0.00 | 45 | 996.3 |
| 20260508144516 | 67 | 30 | 3.0 | 8.0 | 0.00 | 0.00 | 0.00 | 46 | 996.3 |
| 20260508143517 | 67 | 32 | 4.0 | 10.0 | 0.00 | 0.00 | 0.00 | 44 | 996.3 |
| 20260508142518 | 68 | 45 | 5.0 | 8.0 | 0.00 | 0.00 | 0.00 | 44 | 996.3 |
| 20260508141519 | 68 | 172 | 3.0 | 6.0 | 0.00 | 0.00 | 0.00 | 43 | 996.3 |
| 20260508140515 | 67 | 79 | 3.0 | 7.0 | 0.00 | 0.00 | 0.00 | 45 | 996.4 |